QPF
0.01 0.02 0.02 0.02 0.02 0.03 0.03 0.03 0.02 0.02 0.03 0.03 0.02 0.03 0.02 0.02 0.03 0.03 0.03 0.03 0.03 0.03 0.03 0.03 0.02 0.02 0.02 0.02 0.02 0.02 0.02 0.02 0.03 0.03 0.02 0.02 0.03 0.04 0.04 0.05 0.06 0.10 0.15
0.01 0.01 0.02 0.02 0.02 0.02 0.03 0.03 0.02 0.02 0.02 0.02 0.02 0.03 0.02 0.02 0.02 0.02 0.02 0.02 0.02 0.04 0.06 0.05 0.04 0.02 0.02 0.02 0.02 0.01 0.02 0.02 0.02 0.01 0.01 0.01 0.03 0.04 0.04 0.04 0.04 0.07 0.11
0.01 0.01 0.01 0.02 0.02 0.02 0.03 0.03 0.02 0.02 0.02 0.02 0.02 0.02 0.03 0.02 0.02 0.02 0.02 0.02 0.02 0.04 0.07 0.05 0.03 0.02 0.02 0.02 0.02 0.02 0.02 0.03 0.03 0.02 0.01 0.01 0.02 0.04 0.04 0.03 0.04 0.06 0.06
0.01 0.01 0.01 0.02 0.03 0.03 0.04 0.04 0.03 0.03 0.02 0.02 0.02 0.02 0.02 0.02 0.02 0.03 0.03 0.03 0.03 0.04 0.05 0.03 0.02 0.02 0.02 0.01 0.02 0.02 0.02 0.02 0.03 0.03 0.03 0.02 0.04 0.06 0.05 0.06 0.07 0.07 0.07
0.01 0.00 0.01 0.02 0.04 0.04 0.02 0.02 0.03 0.03 0.03 0.02 0.01 0.02 0.02 0.02 0.03 0.04 0.04 0.03 0.04 0.04 0.03 0.02 0.02 0.01 0.01 0.02 0.02 0.02 0.01 0.02 0.02 0.03 0.04 0.03 0.04 0.08 0.07 0.07 0.07 0.06 0.06
0.02 0.01 0.01 0.02 0.02 0.03 0.04 0.03 0.04 0.04 0.03 0.02 0.02 0.02 0.02 0.02 0.02 0.03 0.04 0.03 0.03 0.03 0.02 0.03 0.02 0.01 0.02 0.02 0.02 0.02 0.02 0.04 0.03 0.02 0.03 0.04 0.06 0.07 0.04 0.04 0.05 0.04 0.04
0.02 0.01 0.01 0.01 0.01 0.01 0.03 0.05 0.05 0.05 0.06 0.04 0.03 0.03 0.02 0.02 0.03 0.03 0.04 0.04 0.03 0.03 0.03 0.03 0.02 0.02 0.02 0.01 0.02 0.02 0.02 0.04 0.04 0.02 0.03 0.04 0.07 0.07 0.05 0.04 0.04 0.04 0.03
0.01 0.01 0.01 0.01 0.01 0.01 0.02 0.03 0.05 0.08 0.12 0.08 0.05 0.04 0.03 0.03 0.03 0.04 0.04 0.04 0.04 0.05 0.04 0.04 0.03 0.02 0.02 0.02 0.02 0.02 0.02 0.04 0.06 0.04 0.03 0.04 0.08 0.08 0.06 0.04 0.03 0.03 0.03
0.01 0.01 0.01 0.01 0.01 0.01 0.01 0.02 0.03 0.08 0.16 0.16 0.09 0.05 0.03 0.03 0.03 0.05 0.05 0.05 0.04 0.05 0.05 0.04 0.03 0.03 0.02 0.02 0.02 0.01 0.01 0.02 0.05 0.05 0.04 0.05 0.09 0.10 0.07 0.06 0.06 0.05 0.04
0.02 0.01 0.01 0.01 0.01 0.01 0.01 0.01 0.02 0.05 0.16 0.19 0.13 0.07 0.03 0.03 0.03 0.04 0.05 0.05 0.05 0.05 0.06 0.05 0.03 0.03 0.02 0.02 0.01 0.01 0.01 0.01 0.03 0.05 0.06 0.07 0.13 0.14 0.10 0.06 0.06 0.06 0.05
0.02 0.02 0.01 0.01 0.01 0.01 0.01 0.01 0.01 0.03 0.11 0.16 0.13 0.09 0.05 0.04 0.03 0.03 0.03 0.03 0.04 0.05 0.05 0.04 0.03 0.02 0.01 0.01 0.01 0.01 0.01 0.01 0.02 0.03 0.05 0.09 0.12 0.16 0.14 0.07 0.08 0.06 0.06
0.02 0.02 0.01 0.01 0.01 0.01 0.01 0.01 0.01 0.01 0.06 0.12 0.12 0.09 0.07 0.06 0.04 0.03 0.03 0.03 0.04 0.04 0.03 0.03 0.03 0.03 0.03 0.02 0.01 0.01 0.01 0.02 0.02 0.02 0.04 0.05 0.08 0.13 0.15 0.08 0.07 0.07 0.05
0.03 0.02 0.01 0.01 0.01 0.01 0.01 0.01 0.01 0.01 0.04 0.09 0.13 0.08 0.07 0.07 0.05 0.03 0.03 0.03 0.03 0.03 0.02 0.02 0.02 0.04 0.04 0.03 0.02 0.01 0.01 0.01 0.01 0.02 0.03 0.05 0.06 0.07 0.13 0.10 0.09 0.07 0.05
0.05 0.02 0.01 0.02 0.02 0.02 0.01 0.01 0.01 0.01 0.03 0.08 0.15 0.09 0.07 0.06 0.05 0.04 0.03 0.02 0.02 0.02 0.03 0.02 0.02 0.04 0.04 0.03 0.03 0.01 0.01 0.01 0.01 0.01 0.03 0.06 0.07 0.07 0.14 0.14 0.10 0.09 0.05
0.04 0.03 0.02 0.02 0.02 0.03 0.02 0.02 0.01 0.01 0.02 0.05 0.14 0.12 0.08 0.06 0.05 0.04 0.02 0.02 0.02 0.02 0.05 0.04 0.02 0.04 0.05 0.04 0.03 0.02 0.01 0.01 0.01 0.01 0.02 0.05 0.07 0.07 0.12 0.13 0.11 0.13 0.09
0.04 0.03 0.02 0.02 0.03 0.03 0.03 0.03 0.02 0.02 0.02 0.03 0.12 0.15 0.10 0.07 0.07 0.06 0.02 0.01 0.01 0.02 0.04 0.06 0.04 0.03 0.04 0.04 0.03 0.03 0.02 0.02 0.02 0.02 0.02 0.05 0.07 0.07 0.07 0.09 0.09 0.12 0.14
0.04 0.05 0.04 0.03 0.03 0.04 0.04 0.04 0.03 0.04 0.03 0.03 0.08 0.16 0.14 0.10 0.09 0.07 0.02 0.01 0.01 0.02 0.03 0.06 0.06 0.03 0.03 0.03 0.03 0.04 0.03 0.03 0.03 0.03 0.02 0.03 0.05 0.05 0.06 0.06 0.06 0.07 0.09
0.05 0.06 0.05 0.04 0.04 0.04 0.05 0.05 0.05 0.05 0.05 0.04 0.05 0.13 0.14 0.12 0.10 0.08 0.03 0.02 0.01 0.02 0.03 0.06 0.06 0.05 0.03 0.04 0.03 0.04 0.06 0.05 0.04 0.02 0.03 0.02 0.03 0.03 0.03 0.04 0.04 0.05 0.05
0.06 0.05 0.04 0.04 0.04 0.05 0.05 0.06 0.07 0.06 0.06 0.06 0.06 0.08 0.13 0.13 0.10 0.08 0.04 0.02 0.01 0.02 0.03 0.05 0.05 0.05 0.04 0.04 0.04 0.05 0.07 0.07 0.05 0.04 0.03 0.02 0.02 0.02 0.02 0.02 0.02 0.02 0.04
0.07 0.05 0.04 0.04 0.04 0.04 0.05 0.06 0.08 0.08 0.08 0.08 0.07 0.08 0.12 0.15 0.11 0.09 0.05 0.02 0.01 0.02 0.03 0.04 0.04 0.03 0.04 0.04 0.05 0.06 0.07 0.08 0.08 0.06 0.05 0.04 0.02 0.02 0.02 0.01 0.01 0.01 0.02
0.09 0.06 0.05 0.05 0.05 0.04 0.04 0.04 0.06 0.07 0.08 0.09 0.09 0.10 0.10 0.15 0.14 0.11 0.06 0.03 0.02 0.02 0.02 0.02 0.02 0.03 0.03 0.03 0.05 0.07 0.08 0.08 0.08 0.07 0.06 0.06 0.04 0.02 0.01 0.01 0.01 0.01 0.01
0.08 0.06 0.06 0.06 0.05 0.04 0.04 0.03 0.04 0.06 0.06 0.07 0.08 0.10 0.10 0.12 0.15 0.13 0.08 0.05 0.04 0.02 0.02 0.02 0.01 0.01 0.02 0.02 0.03 0.05 0.07 0.09 0.09 0.07 0.06 0.06 0.05 0.03 0.02 0.01 0.00 0.00 0.00
0.07 0.06 0.06 0.06 0.05 0.06 0.05 0.04 0.04 0.05 0.08 0.07 0.06 0.07 0.08 0.09 0.12 0.13 0.08 0.06 0.04 0.03 0.02 0.02 0.01 0.01 0.02 0.02 0.02 0.03 0.05 0.07 0.09 0.08 0.06 0.06 0.05 0.04 0.02 0.01 0.01 0.01 0.01
0.05 0.06 0.06 0.06 0.04 0.05 0.06 0.06 0.05 0.04 0.05 0.07 0.06 0.05 0.07 0.07 0.08 0.12 0.10 0.07 0.05 0.04 0.02 0.01 0.01 0.02 0.02 0.03 0.03 0.03 0.03 0.04 0.06 0.08 0.08 0.07 0.06 0.04 0.02 0.01 0.01 0.01 0.01
0.04 0.05 0.05 0.06 0.05 0.04 0.05 0.04 0.04 0.04 0.03 0.04 0.06 0.07 0.07 0.08 0.07 0.10 0.11 0.09 0.06 0.05 0.03 0.02 0.01 0.01 0.01 0.02 0.03 0.03 0.04 0.04 0.04 0.06 0.07 0.09 0.09 0.07 0.04 0.02 0.01 0.01 0.01
0.04 0.04 0.05 0.06 0.06 0.05 0.04 0.04 0.04 0.04 0.03 0.03 0.04 0.06 0.08 0.09 0.08 0.09 0.10 0.08 0.06 0.06 0.04 0.03 0.02 0.01 0.01 0.01 0.02 0.02 0.03 0.03 0.03 0.03 0.04 0.06 0.08 0.09 0.07 0.04 0.02 0.01 0.01
MSLP
1012.82 1012.82 1012.95 1013.22 1013.61 1014.05 1014.50 1014.90 1015.21 1015.42 1015.55 1015.62 1015.70 1015.82 1016.00 1016.23 1016.49 1016.75 1016.96 1017.12 1017.21 1017.26 1017.30 1017.36 1017.47 1017.64 1017.84 1018.05 1018.23 1018.37 1018.44 1018.47 1018.46 1018.46 1018.49 1018.56 1018.67 1018.80 1018.93 1019.04 1019.10 1019.12 1019.12
1012.14 1012.29 1012.56 1012.95 1013.42 1013.91 1014.39 1014.80 1015.13 1015.36 1015.53 1015.67 1015.83 1016.03 1016.28 1016.58 1016.89 1017.17 1017.40 1017.56 1017.66 1017.71 1017.76 1017.84 1017.97 1018.14 1018.34 1018.55 1018.72 1018.85 1018.91 1018.93 1018.92 1018.93 1018.97 1019.05 1019.18 1019.33 1019.48 1019.60 1019.67 1019.71 1019.73
1011.41 1011.71 1012.13 1012.65 1013.21 1013.77 1014.29 1014.73 1015.07 1015.34 1015.55 1015.75 1015.97 1016.24 1016.55 1016.90 1017.23 1017.54 1017.78 1017.95 1018.05 1018.12 1018.18 1018.27 1018.41 1018.59 1018.79 1018.99 1019.16 1019.28 1019.35 1019.38 1019.39 1019.42 1019.48 1019.59 1019.74 1019.90 1020.06 1020.19 1020.28 1020.34 1020.37
1010.76 1011.20 1011.76 1012.39 1013.05 1013.68 1014.24 1014.71 1015.09 1015.38 1015.63 1015.88 1016.14 1016.45 1016.79 1017.16 1017.52 1017.83 1018.08 1018.25 1018.37 1018.45 1018.54 1018.65 1018.80 1018.98 1019.19 1019.39 1019.57 1019.70 1019.79 1019.84 1019.88 1019.94 1020.04 1020.17 1020.33 1020.50 1020.67 1020.80 1020.90 1020.97 1021.02
1010.29 1010.85 1011.52 1012.25 1012.98 1013.67 1014.27 1014.78 1015.17 1015.49 1015.77 1016.03 1016.32 1016.65 1017.00 1017.37 1017.73 1018.04 1018.30 1018.49 1018.62 1018.74 1018.85 1018.98 1019.14 1019.34 1019.56 1019.77 1019.96 1020.11 1020.23 1020.32 1020.40 1020.50 1020.62 1020.77 1020.93 1021.10 1021.26 1021.39 1021.49 1021.57 1021.65
1010.06 1010.71 1011.46 1012.25 1013.03 1013.76 1014.38 1014.90 1015.31 1015.65 1015.94 1016.22 1016.51 1016.84 1017.19 1017.55 1017.90 1018.21 1018.48 1018.69 1018.85 1019.00 1019.14 1019.30 1019.49 1019.70 1019.92 1020.15 1020.35 1020.53 1020.69 1020.82 1020.94 1021.07 1021.21 1021.36 1021.52 1021.67 1021.81 1021.94 1022.04 1022.13 1022.23
1010.08 1010.77 1011.56 1012.38 1013.17 1013.90 1014.52 1015.04 1015.46 1015.81 1016.11 1016.40 1016.70 1017.03 1017.37 1017.73 1018.07 1018.39 1018.67 1018.90 1019.10 1019.28 1019.46 1019.65 1019.85 1020.07 1020.31 1020.54 1020.76 1020.97 1021.16 1021.33 1021.49 1021.64 1021.79 1021.93 1022.07 1022.20 1022.32 1022.42 1022.53 1022.64 1022.77
1010.27 1010.98 1011.77 1012.57 1013.34 1014.05 1014.66 1015.17 1015.59 1015.95 1016.27 1016.58 1016.90 1017.23 1017.58 1017.94 1018.28 1018.61 1018.91 1019.17 1019.41 1019.62 1019.83 1020.04 1020.26 1020.48 1020.72 1020.96 1021.19 1021.42 1021.63 1021.83 1022.02 1022.18 1022.33 1022.46 1022.57 1022.67 1022.77 1022.87 1022.98 1023.11 1023.28
1010.55 1011.26 1012.02 1012.77 1013.50 1014.15 1014.73 1015.22 1015.66 1016.04 1016.40 1016.74 1017.10 1017.46 1017.83 1018.19 1018.56 1018.90 1019.22 1019.52 1019.78 1020.03 1020.26 1020.48 1020.70 1020.92 1021.15 1021.39 1021.62 1021.86 1022.10 1022.32 1022.51 1022.69 1022.83 1022.94 1023.03 1023.11 1023.19 1023.29 1023.42 1023.59 1023.79
1010.80 1011.50 1012.22 1012.92 1013.58 1014.17 1014.71 1015.20 1015.65 1016.07 1016.48 1016.88 1017.29 1017.70 1018.10 1018.50 1018.88 1019.25 1019.59 1019.91 1020.21 1020.47 1020.72 1020.95 1021.16 1021.38 1021.59 1021.82 1022.06 1022.30 1022.54 1022.78 1022.99 1023.16 1023.29 1023.39 1023.46 1023.53 1023.60 1023.71 1023.87 1024.08 1024.33
1010.95 1011.65 1012.33 1012.97 1013.56 1014.11 1014.62 1015.10 1015.57 1016.05 1016.52 1017.00 1017.47 1017.93 1018.38 1018.81 1019.22 1019.61 1019.98 1020.32 1020.63 1020.92 1021.17 1021.40 1021.61 1021.82 1022.02 1022.24 1022.47 1022.72 1022.98 1023.22 1023.43 1023.61 1023.74 1023.82 1023.89 1023.95 1024.03 1024.17 1024.35 1024.61 1024.90
1010.96 1011.66 1012.32 1012.92 1013.46 1013.96 1014.45 1014.95 1015.46 1015.99 1016.54 1017.09 1017.63 1018.15 1018.64 1019.10 1019.54 1019.95 1020.33 1020.69 1021.02 1021.32 1021.58 1021.82 1022.03 1022.23 1022.43 1022.65 1022.88 1023.14 1023.40 1023.65 1023.87 1024.05 1024.18 1024.26 1024.33 1024.39 1024.49 1024.64 1024.86 1025.15 1025.48
1010.83 1011.55 1012.20 1012.77 1013.28 1013.77 1014.26 1014.78 1015.33 1015.92 1016.54 1017.15 1017.75 1018.32 1018.84 1019.33 1019.78 1020.20 1020.60 1020.98 1021.33 1021.65 1021.93 1022.18 1022.41 1022.62 1022.83 1023.06 1023.30 1023.57 1023.84 1024.10 1024.33 1024.50 1024.63 1024.72 1024.79 1024.86 1024.97 1025.14 1025.38 1025.69 1026.03
1010.59 1011.33 1011.99 1012.56 1013.07 1013.56 1014.07 1014.62 1015.22 1015.86 1016.53 1017.19 1017.83 1018.42 1018.96 1019.46 1019.91 1020.35 1020.76 1021.16 1021.54 1021.89 1022.21 1022.50 1022.76 1023.00 1023.24 1023.49 1023.75 1024.03 1024.31 1024.58 1024.81 1024.99 1025.12 1025.20 1025.27 1025.34 1025.45 1025.63 1025.87 1026.18 1026.52
1010.28 1011.05 1011.72 1012.30 1012.83 1013.35 1013.89 1014.48 1015.13 1015.81 1016.52 1017.21 1017.86 1018.45 1018.99 1019.48 1019.94 1020.38 1020.81 1021.23 1021.65 1022.06 1022.43 1022.78 1023.09 1023.38 1023.67 1023.95 1024.24 1024.54 1024.83 1025.10 1025.33 1025.51 1025.63 1025.71 1025.76 1025.83 1025.93 1026.09 1026.32 1026.60 1026.93
1009.96 1010.73 1011.42 1012.02 1012.58 1013.14 1013.74 1014.37 1015.06 1015.78 1016.50 1017.19 1017.83 1018.41 1018.93 1019.41 1019.86 1020.31 1020.76 1021.23 1021.70 1022.17 1022.62 1023.04 1023.43 1023.79 1024.13 1024.46 1024.78 1025.10 1025.40 1025.67 1025.90 1026.06 1026.16 1026.22 1026.27 1026.31 1026.39 1026.52 1026.71 1026.96 1027.24
1009.65 1010.41 1011.09 1011.72 1012.33 1012.94 1013.58 1014.26 1014.99 1015.73 1016.45 1017.14 1017.76 1018.31 1018.81 1019.27 1019.72 1020.18 1020.66 1021.18 1021.72 1022.26 1022.80 1023.30 1023.77 1024.21 1024.61 1024.99 1025.35 1025.69 1026.00 1026.26 1026.47 1026.62 1026.70 1026.75 1026.77 1026.79 1026.83 1026.93 1027.07 1027.27 1027.50
1009.38 1010.09 1010.76 1011.40 1012.04 1012.70 1013.39 1014.13 1014.88 1015.64 1016.36 1017.03 1017.63 1018.17 1018.64 1019.09 1019.55 1020.02 1020.55 1021.12 1021.72 1022.34 1022.96 1023.55 1024.10 1024.61 1025.08 1025.51 1025.90 1026.26 1026.57 1026.83 1027.03 1027.16 1027.23 1027.25 1027.25 1027.25 1027.27 1027.33 1027.43 1027.57 1027.75
1009.15 1009.78 1010.42 1011.06 1011.72 1012.42 1013.15 1013.93 1014.71 1015.49 1016.22 1016.88 1017.47 1017.99 1018.46 1018.91 1019.38 1019.88 1020.44 1021.06 1021.72 1022.40 1023.09 1023.75 1024.37 1024.95 1025.48 1025.95 1026.38 1026.75 1027.07 1027.33 1027.52 1027.65 1027.71 1027.73 1027.72 1027.70 1027.70 1027.73 1027.80 1027.90 1028.04
1008.98 1009.51 1010.08 1010.69 1011.36 1012.07 1012.84 1013.65 1014.46 1015.26 1016.00 1016.67 1017.26 1017.79 1018.28 1018.74 1019.23 1019.76 1020.35 1021.00 1021.70 1022.42 1023.15 1023.86 1024.54 1025.16 1025.73 1026.25 1026.71 1027.11 1027.45 1027.71 1027.91 1028.04 1028.11 1028.14 1028.13 1028.12 1028.12 1028.15 1028.20 1028.28 1028.39
1008.87 1009.29 1009.78 1010.34 1010.97 1011.68 1012.46 1013.28 1014.12 1014.93 1015.70 1016.40 1017.02 1017.58 1018.09 1018.59 1019.10 1019.66 1020.26 1020.93 1021.64 1022.37 1023.11 1023.84 1024.54 1025.20 1025.80 1026.35 1026.85 1027.28 1027.64 1027.94 1028.16 1028.31 1028.40 1028.46 1028.48 1028.49 1028.52 1028.55 1028.61 1028.69 1028.78
1008.87 1009.17 1009.54 1010.02 1010.60 1011.27 1012.03 1012.84 1013.68 1014.52 1015.32 1016.05 1016.72 1017.33 1017.89 1018.43 1018.98 1019.55 1020.16 1020.82 1021.51 1022.22 1022.94 1023.66 1024.36 1025.02 1025.65 1026.23 1026.76 1027.23 1027.64 1027.97 1028.23 1028.42 1028.56 1028.65 1028.72 1028.78 1028.83 1028.90 1028.98 1029.07 1029.17
1009.02 1009.18 1009.43 1009.79 1010.28 1010.87 1011.57 1012.35 1013.18 1014.03 1014.85 1015.64 1016.36 1017.03 1017.66 1018.25 1018.83 1019.42 1020.02 1020.64 1021.29 1021.96 1022.64 1023.31 1023.99 1024.65 1025.29 1025.89 1026.46 1026.98 1027.43 1027.81 1028.13 1028.37 1028.56 1028.71 1028.82 1028.93 1029.03 1029.14 1029.25 1029.36 1029.47
1009.35 1009.37 1009.49 1009.71 1010.06 1010.54 1011.14 1011.86 1012.64 1013.48 1014.32 1015.14 1015.93 1016.67 1017.36 1018.00 1018.62 1019.21 1019.80 1020.39 1020.98 1021.58 1022.20 1022.83 1023.46 1024.10 1024.74 1025.37 1025.97 1026.53 1027.04 1027.48 1027.85 1028.16 1028.40 1028.60 1028.77 1028.93 1029.07 1029.22 1029.36 1029.50 1029.63
1009.90 1009.79 1009.74 1009.81 1009.99 1010.32 1010.79 1011.39 1012.11 1012.90 1013.74 1014.58 1015.42 1016.21 1016.96 1017.66 1018.31 1018.92 1019.49 1020.04 1020.58 1021.12 1021.68 1022.25 1022.84 1023.46 1024.10 1024.74 1025.36 1025.96 1026.52 1027.01 1027.44 1027.80 1028.10 1028.35 1028.57 1028.76 1028.94 1029.12 1029.29 1029.45 1029.59
1010.68 1010.44 1010.23 1010.11 1010.11 1010.25 1010.55 1011.01 1011.61 1012.32 1013.12 1013.96 1014.82 1015.66 1016.46 1017.20 1017.89 1018.51 1019.09 1019.61 1020.12 1020.61 1021.11 1021.63 1022.19 1022.78 1023.41 1024.05 1024.70 1025.33 1025.92 1026.46 1026.93 1027.34 1027.68 1027.97 1028.23 1028.46 1028.66 1028.86 1029.04 1029.21 1029.36
Thickness
5686 5689 5691 5693 5694 5695 5696 5697 5698 5699 5700 5701 5702 5703 5703 5704 5704 5705 5705 5705 5706 5707 5708 5708 5709 5709 5709 5709 5709 5709 5710 5710 5710 5710 5711 5711 5711 5711 5711 5710 5711 5711 5711
5686 5687 5688 5689 5690 5691 5692 5693 5693 5695 5696 5696 5698 5699 5699 5700 5700 5701 5701 5701 5702 5703 5703 5704 5704 5705 5705 5706 5706 5705 5705 5705 5706 5706 5706 5707 5707 5707 5707 5707 5707 5707 5707
5682 5683 5684 5686 5686 5687 5688 5688 5689 5690 5691 5692 5693 5694 5695 5695 5696 5697 5697 5697 5698 5698 5699 5699 5700 5700 5701 5701 5701 5701 5701 5701 5701 5702 5702 5703 5703 5703 5703 5703 5703 5703 5703
5678 5679 5680 5681 5682 5682 5683 5683 5684 5685 5686 5687 5688 5690 5691 5691 5692 5692 5693 5693 5693 5694 5694 5695 5695 5696 5696 5696 5697 5697 5697 5697 5697 5697 5698 5698 5698 5699 5699 5699 5699 5698 5698
5672 5673 5674 5675 5676 5677 5677 5678 5679 5680 5681 5682 5684 5685 5686 5687 5687 5688 5688 5688 5689 5689 5690 5690 5690 5691 5691 5692 5692 5692 5692 5692 5692 5693 5693 5693 5694 5694 5695 5694 5694 5694 5694
5666 5667 5668 5669 5670 5671 5671 5672 5673 5674 5676 5677 5678 5679 5680 5681 5682 5682 5683 5683 5684 5684 5685 5685 5686 5686 5686 5687 5687 5687 5687 5687 5687 5688 5688 5689 5689 5689 5690 5690 5689 5689 5689
5659 5660 5661 5662 5663 5664 5665 5666 5667 5668 5670 5671 5673 5674 5675 5676 5676 5677 5677 5678 5679 5679 5680 5680 5681 5681 5682 5682 5682 5682 5682 5682 5683 5683 5683 5684 5684 5685 5685 5684 5684 5684 5684
5652 5653 5654 5655 5656 5657 5658 5659 5660 5662 5663 5665 5666 5667 5669 5670 5670 5671 5672 5672 5673 5673 5674 5675 5675 5676 5676 5677 5677 5677 5677 5677 5678 5678 5678 5678 5679 5679 5679 5679 5679 5679 5678
5644 5646 5647 5647 5648 5649 5650 5652 5653 5654 5656 5657 5658 5660 5661 5663 5664 5664 5665 5666 5667 5668 5668 5669 5669 5670 5670 5671 5671 5671 5671 5672 5672 5672 5672 5673 5673 5674 5673 5673 5673 5673 5673
5636 5637 5638 5639 5641 5642 5642 5643 5645 5646 5648 5649 5650 5651 5653 5655 5656 5657 5658 5659 5660 5661 5662 5662 5663 5664 5664 5664 5665 5665 5665 5666 5667 5667 5667 5667 5667 5668 5668 5668 5668 5667 5667
5627 5629 5630 5631 5632 5633 5634 5635 5637 5638 5639 5641 5642 5643 5645 5646 5648 5649 5651 5652 5653 5654 5655 5655 5656 5657 5657 5657 5658 5659 5659 5659 5660 5661 5661 5661 5661 5661 5661 5661 5661 5661 5661
5617 5620 5621 5623 5624 5625 5626 5627 5628 5629 5630 5631 5633 5635 5636 5637 5639 5641 5642 5644 5645 5646 5647 5648 5648 5649 5650 5650 5651 5652 5652 5653 5654 5654 5655 5655 5655 5655 5655 5655 5655 5655 5655
5609 5611 5613 5615 5616 5617 5618 5619 5620 5621 5622 5623 5624 5626 5627 5629 5630 5632 5633 5635 5636 5637 5639 5640 5640 5641 5642 5643 5643 5644 5645 5645 5646 5647 5648 5648 5649 5649 5649 5649 5649 5648 5648
5600 5603 5604 5606 5608 5609 5610 5611 5612 5613 5614 5615 5616 5618 5619 5620 5621 5622 5624 5625 5627 5628 5630 5632 5632 5633 5634 5635 5636 5637 5638 5638 5639 5640 5641 5641 5642 5642 5642 5642 5642 5642 5642
5593 5594 5595 5597 5599 5600 5601 5602 5603 5604 5605 5606 5607 5608 5610 5611 5611 5613 5614 5616 5618 5619 5621 5622 5624 5625 5626 5627 5628 5629 5630 5630 5631 5632 5633 5634 5635 5635 5635 5635 5635 5635 5635
5585 5586 5587 5589 5590 5591 5592 5593 5594 5595 5596 5597 5598 5599 5601 5602 5602 5604 5605 5607 5609 5610 5612 5613 5615 5616 5617 5618 5619 5620 5621 5622 5623 5624 5625 5626 5627 5627 5628 5628 5628 5627 5627
5576 5578 5579 5580 5581 5582 5583 5584 5585 5586 5587 5588 5589 5590 5592 5593 5593 5595 5596 5598 5600 5601 5603 5604 5606 5607 5608 5609 5610 5612 5613 5613 5614 5615 5616 5617 5618 5619 5619 5620 5620 5619 5619
5566 5567 5569 5571 5571 5572 5574 5574 5575 5576 5578 5578 5579 5581 5582 5583 5584 5585 5586 5588 5590 5592 5594 5595 5596 5597 5598 5598 5600 5601 5603 5604 5605 5606 5607 5608 5609 5610 5610 5611 5611 5611 5611
5557 5558 5559 5560 5561 5562 5564 5565 5565 5566 5568 5569 5570 5571 5572 5573 5573 5575 5576 5577 5579 5582 5584 5585 5585 5587 5587 5588 5589 5591 5593 5594 5596 5597 5598 5599 5600 5601 5601 5602 5602 5602 5602
5547 5548 5548 5550 5550 5551 5553 5554 5554 5556 5558 5559 5560 5561 5562 5563 5563 5564 5565 5567 5569 5571 5573 5574 5575 5576 5577 5579 5580 5580 5582 5583 5585 5587 5589 5590 5590 5591 5591 5592 5592 5592 5592
5535 5536 5537 5538 5540 5541 5542 5543 5544 5545 5547 5548 5549 5550 5552 5552 5553 5554 5555 5556 5558 5560 5562 5564 5565 5565 5566 5568 5569 5568 5569 5572 5574 5576 5578 5580 5580 5581 5581 5582 5582 5582 5581
5522 5524 5526 5527 5529 5531 5532 5533 5533 5534 5536 5537 5538 5540 5541 5542 5543 5544 5544 5545 5547 5549 5551 5552 5554 5553 5554 5557 5558 5558 5557 5559 5562 5565 5567 5569 5570 5571 5571 5571 5571 5571 5571
5510 5512 5515 5517 5518 5520 5522 5522 5521 5522 5523 5524 5526 5528 5529 5531 5533 5534 5534 5535 5536 5539 5541 5542 5544 5545 5544 5545 5548 5550 5549 5550 5550 5552 5555 5558 5560 5560 5560 5561 5561 5560 5560
5499 5501 5504 5505 5507 5508 5510 5511 5511 5512 5513 5514 5516 5517 5518 5520 5522 5523 5524 5525 5526 5528 5530 5532 5534 5535 5535 5535 5536 5538 5541 5542 5540 5539 5542 5545 5547 5549 5549 5549 5549 5549 5549
5488 5490 5493 5494 5495 5496 5498 5499 5500 5500 5502 5502 5503 5505 5506 5508 5510 5512 5513 5514 5516 5517 5519 5522 5523 5525 5526 5526 5526 5527 5528 5529 5531 5531 5531 5531 5533 5535 5537 5538 5538 5538 5538
5477 5478 5480 5482 5483 5484 5486 5487 5488 5489 5490 5490 5492 5493 5495 5496 5498 5500 5502 5504 5505 5506 5508 5511 5513 5514 5515 5516 5517 5518 5519 5520 5520 5521 5520 5520 5521 5522 5524 5526 5527 5527 5527